Sexton Summit, OR

5:58 PM PDT on October 22, 2019 (GMT -0700)
Sexton Summit

Weather History for KSXT - August, 2019

Change the Weather History Date:

Thursday, August 29, 2019

  Actual Average Record
Temperature  
Mean Temperature 70 °F -  
Max Temperature 84 °F 71 °F 90 °F (2007)
Min Temperature 57 °F 50 °F 39 °F (2010)
Cooling Degree Days 4    
Growing Degree Days 20 (Base 50)    
Moisture  
Dew Point 52 °F    
Average Humidity 58    
Maximum Humidity 94    
Minimum Humidity 33    
Precipitation  
Precipitation 0.00 in - - ()
Sea Level Pressure  
Sea Level Pressure 29.96 in    
Wind  
Wind Speed 2 mph (WNW)    
Max Wind Speed 8 mph    
Max Gust Speed -    
Visibility 10 miles    
Events      
Averages and records for this station are not official NWS values.
T = Trace of Precipitation, MM = Missing Value Source: NWS Daily Summary

Daily Weather History Graph

Daily Weather History Graph

Search for Another Location

Airport or City:

Astronomy

Aug. 29, 2019 Rise Set
Actual Time 6:35 AM PDT 7:53 PM PDT
Civil Twilight 6:05 AM PDT 8:22 PM PDT
Nautical Twilight 5:30 AM PDT 8:57 PM PDT
Astronomical Twilight 4:53 AM PDT 9:34 PM PDT
Moon 5:24 AM PDT (8/29) 7:55 PM PDT (8/29)
Length of Visible Light 14h 16m
Length of Day
13h 17m
Waning Crescent, 1% of the Moon is Illuminated
Aug 29
Waning Crescent
Aug 30
New
Sep 5
First Quarter
Sep 13
Full
Sep 21
Last Quarter

Hourly Weather History & Observations

Time (PDT) Temp. Heat Index Dew Point Humidity Pressure Visibility Wind Dir Wind Speed Gust Speed Precip Events Conditions
12:56 AM 72.0 °F - 43.0 °F 35% 29.88 in 10.0 mi WSW 3.5 mph - N/A   Partly Cloudy
1:56 AM 72.0 °F - 41.0 °F 33% 29.87 in 10.0 mi Calm Calm - N/A   Scattered Clouds
2:56 AM 72.0 °F - 45.0 °F 38% 29.87 in 10.0 mi Calm Calm - N/A   Scattered Clouds
3:56 AM 71.1 °F - 43.0 °F 36% 29.87 in 10.0 mi Calm Calm - N/A   Mostly Cloudy
4:56 AM 69.1 °F - 45.0 °F 42% 29.87 in 10.0 mi West 3.5 mph - N/A   Mostly Cloudy
5:56 AM 68.0 °F - 44.1 °F 42% 29.89 in 10.0 mi West 4.6 mph - N/A   Partly Cloudy
6:56 AM 66.9 °F - 46.0 °F 47% 29.91 in 10.0 mi Calm Calm - N/A   Clear
7:56 AM 68.0 °F - 48.0 °F 49% 29.91 in 10.0 mi Calm Calm - N/A   Clear
8:56 AM 70.0 °F - 50.0 °F 49% 29.93 in 10.0 mi Calm Calm - N/A   Clear
9:56 AM 72.0 °F - 51.1 °F 48% 29.93 in 10.0 mi Calm Calm - N/A   Clear
10:56 AM 73.9 °F - 52.0 °F 46% 29.93 in 10.0 mi Calm Calm - N/A   Clear
11:56 AM 75.0 °F - 51.1 °F 43% 29.92 in 10.0 mi Calm Calm - N/A   Partly Cloudy
12:56 PM 78.1 °F - 52.0 °F 40% 29.91 in 10.0 mi Calm Calm - N/A   Clear
1:56 PM 78.1 °F - 53.1 °F 42% 29.90 in 10.0 mi Variable 4.6 mph - N/A   Mostly Cloudy
2:56 PM 82.9 °F 81.8 °F 53.1 °F 36% 29.88 in 10.0 mi Calm Calm - N/A   Scattered Clouds
3:56 PM 81.0 °F 80.5 °F 54.0 °F 39% 29.88 in 10.0 mi Calm Calm - N/A   Scattered Clouds
4:56 PM 75.9 °F - 57.0 °F 52% 29.90 in 10.0 mi Calm Calm - N/A   Mostly Cloudy
5:56 PM 73.0 °F - 57.0 °F 57% 29.91 in 10.0 mi Calm Calm - N/A   Mostly Cloudy
6:56 PM 70.0 °F - 57.0 °F 63% 29.93 in 10.0 mi Calm Calm - N/A   Clear
7:36 PM 68.0 °F - 57.9 °F 70% 30.11 in 10.0 mi Calm Calm - N/A   Overcast
7:56 PM 64.9 °F - 57.0 °F 75% 29.97 in 10.0 mi Calm Calm - N/A   Scattered Clouds
8:22 PM 62.1 °F - 57.0 °F 84% 30.12 in 10.0 mi NW 5.8 mph - N/A   Mostly Cloudy
8:36 PM 60.8 °F - 55.4 °F 82% 30.13 in 10.0 mi NNW 8.1 mph - N/A   Scattered Clouds
8:48 PM 61.0 °F - 55.9 °F 83% 30.13 in 10.0 mi NNW 6.9 mph - N/A   Mostly Cloudy
8:56 PM 61.0 °F - 55.9 °F 83% 30.00 in 10.0 mi Variable 4.6 mph - N/A   Scattered Clouds
9:56 PM 57.9 °F - 55.0 °F 90% 30.01 in 10.0 mi NW 3.5 mph - N/A   Clear
10:56 PM 57.9 °F - 55.9 °F 93% 30.01 in 10.0 mi Calm Calm - N/A   Mostly Cloudy
11:51 PM 57.2 °F - 55.4 °F 94% 30.13 in 2.5 mi Calm Calm - N/A   Overcast
11:56 PM 57.0 °F - 55.0 °F 93% 30.00 in 9.0 mi Calm Calm - N/A   Overcast